Flag for U.S.A. Weather past 2 weeks in Augusta, Maine, U.S.A.

Now
78 °F

Partly sunny.


Feels Like: 79 °F
Forecast: 61 / 79 °F
Wind: 8 mph from South

Location: Augusta State Airport

Current Time: Aug 2, 2015 at 5:31:14 PM

Latest Report: Aug 2, 2015 at 4:53 PM


Visibility: 10 mi

Pressure: 29.85 "Hg

Humidity: 48%

Dew point: 57 °F

Location of AugustaLocation

Historic Weather in Augusta — Graph

°F

Augusta temperature yesterday

Maximum temperature yesterday: 81 °F (at 1:53 PM)
Minimum temperature yesterday: 60 °F (at 5:53 AM)
Average temperature yesterday: 70 °F

Past Weeks' High & Low Weather Summary

 TemperatureHumidityPressure
High86 °F (Jul 20, 4:53 PM)100% (Jul 20, 6:53 AM)30.08 "Hg (Jul 20, 6:53 AM)
Low53 °F (Jul 26, 2:53 AM)37% (Jul 22, 2:53 PM)29.55 "Hg (Jul 21, 5:53 PM)
Average69 °F79%29.83 "Hg
* Reported Jul 18 3:53 PM — Aug 2 3:53 PM, Augusta, Weather by CustomWeather, © 2015

Note: Actual official high and low records may vary slightly from our data, if they occured in-between our weather recording intervals... More about our weather records

Advertising

Augusta weather history for previous 24 hours

 ConditionsComfort  
Time TempWeatherWind HumidityBarometerVisibility
3:53 PM
Sun, Aug 2
80 °FPassing clouds.6 mph49%29.84 "Hg10 mi
2:53 PM79 °FSunny.7 mph45%29.84 "Hg10 mi
1:53 PM77 °FSunny.8 mph48%29.85 "Hg10 mi
12:53 PM76 °FSunny.6 mph52%29.85 "Hg10 mi
11:53 AM75 °FSunny.8 mph54%29.86 "Hg10 mi
10:53 AM73 °FSunny.6 mph57%29.86 "Hg10 mi
9:53 AM72 °FSunny.6 mph57%29.86 "Hg10 mi
8:53 AM70 °FSunny.6 mph59%29.86 "Hg10 mi
7:53 AM68 °FSunny.No wind68%29.84 "Hg10 mi
6:53 AM64 °FScattered clouds.3 mph75%29.83 "Hg10 mi
5:53 AM62 °FMostly cloudy.5 mph83%29.82 "Hg10 mi
4:53 AM62 °FOvercast.No wind83%29.80 "Hg10 mi
3:53 AM64 °FPassing clouds.3 mph75%29.79 "Hg10 mi
2:53 AM60 °FPassing clouds.3 mph93%29.78 "Hg10 mi
1:53 AM65 °FPassing clouds.No wind73%29.78 "Hg10 mi
12:53 AM66 °FClear.3 mph68%29.78 "Hg10 mi
11:53 PM
Sat, Aug 1
67 °FPassing clouds.5 mph71%29.78 "Hg10 mi
10:53 PM67 °FOvercast.5 mph76%29.78 "Hg10 mi
9:53 PM69 °FOvercast.5 mph76%29.77 "Hg10 mi
8:53 PM69 °FSunny.No wind84%29.76 "Hg10 mi
7:53 PM72 °FSunny.No wind73%29.73 "Hg10 mi
6:53 PM74 °FSunny.3 mph64%29.71 "Hg10 mi
5:53 PM73 °FBroken clouds.5 mph71%29.70 "Hg10 mi
Weather by CustomWeather, © 2015

See weather overviewHow to use our weather pages